Regional Weather Roundup
Issued by NWS

Home | Current Version | Previous Version | Graphics & Text | Print | Product List | Glossary On
Versions: 1 2 3 4 5 6 7 8 9 10 11 12 13 14 15 16 17 18 19 20 21 22 23 24 25 26 27 28 29 30 31 32 33 34 35 36 37 38 39 40 41 42 43 44 45 46 47 48 49 50
000
ASUS43 KLMK 192202
RWRKY
KENTUCKY REGIONAL WEATHER ROUNDUP
NATIONAL WEATHER SERVICE LOUISVILLE KY
600 PM EDT SAT AUG 19 2017

NOTE "FAIR" INDICATES FEW OR NO CLOUDS BELOW 12,000 FEET
WITH NO SIGNIFICANT WEATHER AND/OR OBSTRUCTIONS TO VISIBILITY.

KYZ001>023-026-027-061>063-070>075-192300-
WESTERN AND SOUTH CENTRAL KENTUCKY

CITY           SKY/WX    TMP DP  RH WIND       PRES   REMARKS
PADUCAH        SUNNY     93  65  39 W5        29.92S HX  95
HENDERSON      SUNNY     87  71  58 NW5       29.93F HX  93
OWENSBORO      MOSUNNY   89  71  55 NW5       29.94S HX  95
HOPKINSVILLE   SUNNY     89  70  52 SW8       29.94S HX  94
BOWLING GREEN  SUNNY     86  67  52 W3        29.95S
GLASGOW        CLOUDY    85  65  51 SW5       29.96S
$$

KYZ024-025-028>034-038-045-046-053-192300-
NORTH CENTRAL KENTUCKY

CITY           SKY/WX    TMP DP  RH WIND       PRES   REMARKS
LOUISVILLE/SDF MOSUNNY   89  63  41 W12       29.93S HX  90
LOUISVILLE/LOU SUNNY     88  63  43 SW8       29.94S
FORT KNOX      SUNNY     86  67  51 S7        29.94S
$$

KYZ035>037-039>044-047>052-055>060-089>105-192300-
NORTHEAST KENTUCKY

CITY           SKY/WX    TMP DP  RH WIND       PRES   REMARKS
LEXINGTON      SUNNY     85  64  49 SW8       29.96F
COVINGTON      MOSUNNY   87  70  56 SW6       29.94R HX  92
FRANKFORT      MOSUNNY   84  64  50 W6        29.95S
$$

KYZ054-064>069-076>088-106>120-192300-
SOUTHEAST KENTUCKY

CITY           SKY/WX    TMP DP  RH WIND       PRES   REMARKS
JACKSON        SUNNY     85  67  54 CALM      29.99S
LONDON         MOSUNNY   85  63  47 SW5       29.99S
SOMERSET       NOT AVBL
MIDDLESBORO    SUNNY     86  68  54 CALM      29.99S
MONTICELLO     CLEAR     86  68  54 W13       30.00S
$$





USA.gov is the U.S. government's official web portal to all federal, state and local government web resources and services.